Location: Chenango Forks
(42.2242°N, 75.8278°W)
Time: 20:03:26
(UTC-04:00)

Daily predictions for brighter satellites

Satellite Brightness Start Highest point End
(mag) Time Altitude Azimuth Time Altitude Azimuth Time Altitude Azimuth
USA 186 3.7 21:15:22 10° SW 21:17:04 19° W 21:18:49 10° NW
Cosmos 1908 3.3 21:14:54 10° N 21:18:47 64° E 21:22:40 10° SSE
Cosmos 2058 4.1 21:17:01 10° SE 21:20:19 24° E 21:23:37 10° NE
CZ-4 SHROUD 4.2 21:19:14 10° SE 21:22:03 31° ENE 21:24:53 10° N
Cosmos 1151 Rocket 3.1 21:18:25 10° N 21:22:42 63° E 21:27:00 10° SSE
Cosmos 2266 Rocket 4.0 21:19:20 10° S 21:25:35 69° E 21:31:45 10° NNE
Cosmos 405 3.0 21:23:38 10° N 21:27:17 76° E 21:30:53 10° SSE
Cosmos 1674 2.7 21:23:47 10° S 21:27:35 72° E 21:31:27 10° NNE
ALOS 4.2 21:25:30 10° SSW 21:29:33 29° W 21:33:38 10° NW
Cosmos 2315 Rocket 4.3 21:24:37 10° N 21:30:39 50° ENE 21:36:38 10° SSE
CZ-4B R/B 4.4 21:26:56 10° NE 21:31:37 32° E 21:36:12 10° SSE
H-2A R/B 4.0 21:28:33 10° E 21:31:54 17° ENE 21:35:17 10° NNE
Cosmos 2227 Rocket 4.0 21:30:27 10° ESE 21:32:18 12° E 21:34:10 10° ENE
Cosmos 1680 Rocket 3.5 21:28:24 10° NNW 21:33:40 75° ENE 21:38:56 10° SSE
Cosmos 1805 Rocket 4.3 21:30:10 10° SSE 21:34:12 34° E 21:38:14 10° NNE
H-2A R/B 4.5 21:34:06 10° S 21:37:34 18° SE 21:45:48 10° E
Cosmos 923 Rocket 4.1 21:33:01 10° NNW 21:38:14 77° WSW 21:43:25 10° SSE
Cosmos 1300 3.6 21:36:19 10° N 21:39:49 33° ENE 21:42:49 13° SE
Cosmos 1833 4.4 21:35:17 10° SSW 21:41:00 79° WNW 21:46:43 10° NNE
YAOGAN 6 3.3 21:38:16 12° SE 21:41:24 39° ENE 21:44:47 10° N
USA 229 DEB 4.2 21:34:39 10° SW 21:41:32 68° NW 21:48:33 10° NNE
USA 229 4.2 21:34:44 10° SW 21:41:38 69° NW 21:48:40 10° NNE
Tiangong 1 2.0 21:39:16 10° SSW 21:41:57 27° SSE 21:44:38 10° E
SPOT 1/Viking Rocket 4.1 21:39:09 11° SE 21:43:49 44° ENE 21:48:42 10° N
Cosmos 2333 Rocket 3.7 21:39:51 10° N 21:44:27 24° NE 21:49:02 10° ESE
Cosmos 1898 Rocket 4.2 21:42:41 10° SSE 21:47:17 33° E 21:51:55 10° NE
Cosmos 1939 Rocket 3.6 21:46:50 10° S 21:50:39 49° W 21:54:28 10° NNW
H-2A R/B 2.9 21:46:38 10° S 21:51:03 51° W 21:55:28 10° NNW
Cosmos 1707 Rocket 3.9 21:48:03 10° N 21:52:18 49° ENE 21:55:47 15° SSE
Cosmos 1437 Rocket 4.2 21:49:06 10° NNW 21:52:36 35° W 21:56:07 10° SSW
COSMOS 2428 2.8 21:50:58 10° NNW 21:56:38 68° ENE 22:01:17 16° SE
Cosmos 1666 Rocket 4.0 21:52:49 12° SSE 21:56:42 44° E 22:00:55 10° NNE
MetOp-A 4.1 21:51:56 10° SSE 21:57:15 85° ENE 22:02:38 10° NNW
SPOT 5 2.9 21:53:32 10° S 21:58:06 75° WSW 22:02:57 10° NNW
Cosmos 2297 Rocket 3.9 21:57:44 13° ESE 21:59:14 14° E 22:02:01 10° ENE
NOSS 3-1 (A) 3.6 21:55:26 10° S 22:01:02 49° ESE 22:07:13 10° NE
BREEZE-M DEB (TANK) 4.0 22:00:12 10° NW 22:01:49 19° NNE 22:03:41 10° ENE
Cosmos 1455 4.2 22:00:00 10° NE 22:02:13 15° ENE 22:03:46 12° E
PSLV R/B 3.6 22:00:36 12° S 22:03:18 57° W 22:06:20 10° NNW
ARGOS 3.4 21:59:31 15° SSE 22:03:54 57° ENE 22:09:11 10° N
Cosmos 304 Rocket 4.5 22:00:09 10° NNW 22:04:49 51° WSW 22:09:26 10° S
Cosmos 2219 Rocket 2.9 21:59:35 10° N 22:04:51 40° ENE 22:08:52 16° ESE
NOSS 0 Rocket 4.4 22:11:08 10° NNW 22:17:05 48° ENE 22:21:19 19° SE
Cosmos 2237 4.3 22:12:29 10° NNW 22:18:14 78° WSW 22:22:30 18° SSE
Cosmos 1726 2.1 22:17:22 10° N 22:21:09 83° E 22:23:25 23° S
ATLAS 2AS CENTAUR R/B 3.6 22:18:20 15° SSE 22:23:35 33° ESE 22:30:29 10° NE
Cosmos 1980 4.4 22:18:27 10° NNW 22:23:49 41° ENE 22:27:20 20° ESE
Envisat 4.4 22:20:44 10° SSW 22:25:17 33° W 22:29:53 10° NNW
CZ-4C R/B 3.4 22:24:04 28° SE 22:25:31 48° ENE 22:28:53 10° N
USA 32 4.1 22:20:34 10° N 22:25:48 64° E 22:29:09 22° SSE
Cosmos 292 Rocket 3.8 22:23:21 10° NNW 22:28:07 68° ENE 22:30:47 26° SE
Cosmos 2219 3.8 22:24:08 10° SW 22:29:48 60° WNW 22:35:30 10° NNE
Landsat 7 4.0 22:27:03 24° SE 22:29:48 59° ENE 22:34:30 10° N
ERBS 3.7 22:32:03 24° E 22:32:03 24° E 22:34:03 10° ENE
Delta 2 Rocket 3.9 22:28:57 10° WSW 22:31:53 26° S 22:31:53 26° S
Cosmos 2237 Rocket 2.7 22:30:55 10° NNW 22:36:27 48° ENE 22:39:42 23° ESE
Cosmos 2333 4.3 22:30:51 10° NNW 22:36:35 75° WSW 22:40:15 23° SSE
Cosmos 1271 Rocket 2.6 22:34:31 10° N 22:38:22 85° E 22:40:05 32° SSE
ATLAS 3B R/B 3.8 22:32:16 10° NNW 22:38:44 36° NE 22:44:01 14° ESE
Meteor 2-10 4.3 22:33:58 10° N 22:39:42 73° E 22:43:05 26° SSE
Cosmos 2082 4.1 22:38:00 23° SSE 22:41:13 45° ESE 22:46:39 10° NE
Cosmos 1703 3.1 22:41:15 28° S 22:43:14 83° E 22:47:11 10° N
SL-14 R/B 4.0 22:40:06 13° SSW 22:43:32 52° W 22:47:28 10° N
Meteor 1-4 Rocket 2.7 22:40:09 10° NNW 22:43:55 73° W 22:45:29 32° S
Cosmos 2242 Rocket 3.7 22:39:46 10° N 22:44:14 77° W 22:46:44 26° S
Cosmos 1346 3.5 22:45:04 42° E 22:45:04 42° E 22:47:58 10° NNE
Terra 2.0 22:43:25 30° SE 22:45:40 60° ENE 22:50:22 10° N
Cosmos 1937 Rocket 3.4 22:41:24 14° SSW 22:46:01 82° ESE 22:51:15 10° NNE
Cosmos 2360 Rocket 4.1 22:43:08 10° NW 22:47:27 23° W 22:51:44 10° SSW
NOSS 3-1 (C) 3.9 22:41:49 10° SW 22:47:40 65° NW 22:54:13 10° NNE
Iridium 2 3.6 22:47:14 33° S 22:48:51 85° E 22:52:43 10° N
Spot 4 4.2 22:47:26 30° SE 22:49:34 51° ENE 22:54:17 10° N
Cosmos 1862 Rocket 3.7 22:46:48 10° N 22:51:05 56° E 22:52:33 36° SE
Lacrosse 4 Rocket 3.4 22:47:38 10° N 22:51:07 22° NE 22:53:24 15° E
Sich 1 3.8 22:48:45 12° SSW 22:52:39 50° W 22:56:57 10° N
CARTOSAT-1 3.5 22:51:08 35° SSE 22:52:51 74° ENE 22:57:10 10° N
USA 245 4.5 22:53:36 16° WSW 22:54:14 18° W 22:55:59 10° NW
FALCON 9 R/B 4.0 22:28:32 10° W 22:55:09 60° S 23:00:30 20° ESE
Cosmos 1633 Rocket 3.9 22:52:39 13° SSW 22:56:20 48° WNW 23:00:36 10° N
Cosmos 990 Rocket 3.9 22:53:44 24° S 22:56:54 73° ESE 23:02:03 10° NNE
DELTA 2 DEB (DPAF) 4.5 22:58:33 29° S 23:00:42 61° WSW 23:05:10 10° NNW
Cosmos 1626 2.1 23:01:03 50° SSE 23:01:52 69° E 23:05:36 10° NNE
OAO 2 Rocket 3.9 22:58:11 10° WSW 23:03:01 35° S 23:03:20 35° SSE
COSMOS 2455 3.5 23:01:15 10° NNW 23:07:03 45° NE 23:10:13 25° ESE
H-2A R/B 2.2 23:08:02 31° S 23:10:39 72° WSW 23:16:08 10° NNW
Cosmos 2227 Rocket 2.1 23:11:30 21° SSW 23:15:26 88° ESE 23:21:09 10° NNE
Tiangong 1 2.1 23:15:14 10° WSW 23:17:13 36° WSW 23:17:13 36° WSW
Cosmos 1933 3.8 23:14:32 10° N 23:18:28 45° ENE 23:18:58 42° ESE
Cosmos 1869 Rocket 4.4 23:19:15 34° ESE 23:19:38 34° E 23:23:41 10° NNE
Cosmos 2333 Rocket 2.5 23:23:28 10° NNW 23:29:07 58° WSW 23:31:18 36° S
Cosmos 192 4.3 23:24:32 10° NNW 23:29:28 77° WSW 23:30:50 48° S
SL-16 R/B 2.5 23:24:18 10° NNW 23:29:55 58° ENE 23:32:01 36° ESE
Cosmos 389 Rocket 3.9 23:26:51 10° NNE 23:29:47 26° ENE 23:29:47 26° ENE
IGS 5A 4.1 23:29:10 38° SW 23:30:15 48° W 23:34:18 10° NNW
SeaSat 1 3.3 23:29:32 29° ESE 23:31:24 41° NE 23:36:02 10° NNW
ALOS 2 4.3 23:31:51 19° E 23:32:52 21° ENE 23:36:10 10° NNE
Cosmos 1125 Rocket 3.5 23:33:30 45° S 23:35:01 69° ESE 23:40:19 10° NNE
Cosmos 1048 Rocket 4.3 23:30:23 10° NNW 23:35:42 61° ENE 23:37:19 42° SE
CZ-4B R/B 3.8 23:36:58 14° ENE 23:37:01 14° ENE 23:38:53 10° NE
Cosmos 1455 3.2 23:34:35 10° NNW 23:38:06 36° W 23:38:49 33° WSW
Cosmos 2297 Rocket 2.2 23:39:28 29° SSW 23:42:29 81° WNW 23:48:11 10° NNE
Okean 1-7 3.3 23:40:59 10° N 23:45:10 51° E 23:45:28 50° E
NOSS 2-3 (D) 4.2 23:46:30 46° ESE 23:46:35 46° ESE 23:51:51 10° NE
Cosmos 2219 Rocket 3.5 23:43:51 10° NW 23:48:37 29° WSW 23:50:35 24° SW
Cosmos 1703 Rocket 3.4 23:47:43 10° N 23:52:06 80° W 23:52:36 68° SSW
